IRIDIUM 47 DEB, 40249

Orbit data source: Space-Track

IRIDIUM 47 DEB, 40249 is space debris in LEO originally from a launch on Sat, 20 Dec 1997 UTC launched from the Air Force Western Test Range (AFWTR). Debris objects in space refer to the collection of defunct objects orbiting the Earth. Examples of debris include non-operational satellites, rocket bodies, and fragments generated from explosions, collisions, or faulty payload assembly.

Loading next visibility...
Identifier
40249, 1997-082J
Orbit
LEO
Country
Flag of USUS
Related business
Manufacturer
Unknown
Mission
Spacecraft
Bus & Motor
Unknown
Mass
Unknown
Launch date (UTC)
1997-12-20 (28 years ago)
Launch vehicle
Unknown
Launch site
Air Force Western Test Range (AFWTR)
Object type
Payload
Rocket body
Debris
Shape & HBR
Unknown
Radar Cross Section
Small (<0.1 m²)

Expand to show TLE details & history
Last TLE update: 20 hours ago

TLE from 20 hours ago
0 IRIDIUM 47 DEB
1 40249U 97082J   25260.93195107  .00001269  00000-0  38340-3 0  9994
2 40249  86.3855  67.1480 0001685  86.4330 273.7063 14.41690431575688
Epoch: 2025-09-17T22:22Z
TLE epoch observation values (Epoch: 2025-09-17T22:22:00.572Z)
Latitude
0.00001°
Longitude
94.54481°
Altitude
755.903 km
Speed
7.477 km/s
True Right ascension
04h 28m 35s
True Declination
0° 00' 00"
Sunlit
Object was in daylight at epoch
Visualization orbit readout
Latitude
Unknown
Longitude
Unknown
Altitude
Unknown
Speed
Unknown
Apparent Right ascension
Unknown
Apparent Declination
Unknown
Sunlit
N/A
Visualization observer readout
Local Sidereal Time
11:05:02
Azimuth
Unknown
Elevation
Unknown
Doppler factor
Unknown
Orbital elements
Apogee altitude
751.074 km
Perigee altitude
748.672 km
Semi-major axis
7,128.01 km
Eccentricity
0.00017
Inclination
86.3855°
RAAN
67.148°
Arg. of periapsis
86.433°
True anomaly
273.68703°
Mean anomaly
273.7063°
Eccentric anomaly
273.69667°
Mean motion
3.60654 °/min
Orbital period
99.82 mins
BSTAR
0.0003834
Loading maneuver chart data...
Computing Atmospheric mass density...

Documentation

Showing up to 5 results
|